Location: *
(36.2296°N, 43.4034°E)
Time: 04:30:32
(UTC+00:00)

Daily predictions for brighter satellites

Satellite Brightness Start Highest point End
(mag) Time Altitude Azimuth Time Altitude Azimuth Time Altitude Azimuth
Spot 4 Rocket 3.9 00:01:50 10° N 00:06:58 70° WNW 00:07:04 70° W
Cosmos 2173 Rocket 3.9 00:06:52 10° NNW 00:13:04 68° W 00:14:41 50° SSW
Cosmos 1076 Rocket 3.8 00:09:51 10° N 00:14:03 61° E 00:15:00 47° SE
Meteor 1-11 4.1 00:09:41 10° NNW 00:15:11 60° W 00:15:30 59° WSW
ARIANE 5 R/B 3.0 00:14:37 10° N 00:19:32 43° WNW 00:19:38 43° WNW
H-2A R/B 4.2 00:18:06 10° NE 00:21:51 30° E 00:24:23 16° SSE
Cosmos 2237 Rocket 2.1 00:17:19 10° NNW 00:22:55 61° WSW 00:24:30 44° SSW
Cosmos 1980 3.7 00:18:03 10° NNW 00:23:34 55° WSW 00:24:17 51° SW
ATLAS 2AS CENTAUR R/B 2.7 00:17:21 10° NNW 00:24:58 88° WSW 00:31:52 10° SSE
Intercosmos 25 Rocket 3.2 00:24:53 78° SE 00:25:00 79° E 00:28:16 10° N
SL-16 R/B 2.9 00:23:10 10° NNW 00:28:42 54° ENE 00:34:14 10° SE
CZ-2C R/B 3.0 00:26:41 10° N 00:30:28 56° WNW 00:30:28 56° WNW
Cosmos 1689 Rocket 4.1 00:35:13 21° NNW 00:35:13 21° NNW 00:36:22 10° NNW
SEDSat Delta rocket 4.1 00:33:25 39° WSW 00:35:43 56° S 00:42:08 10° ESE
Cosmos 1802 Rocket 4.1 00:33:28 10° NNW 00:39:22 50° W 00:41:50 32° SW
Cosmos 2082 4.0 00:38:09 38° WSW 00:39:46 49° WNW 00:45:20 10° N
Cosmos 2016 Rocket 4.0 00:34:58 10° NNW 00:41:01 59° W 00:44:36 25° SSW
Cosmos 1356 4.3 00:41:57 36° NW 00:41:57 36° NW 00:44:34 10° N
BREEZE-M DEB (TANK) 4.2 00:40:23 23° S 00:42:47 39° SE 00:53:09 10° ENE
IDEFIX/ARIANE 42P 3.2 00:37:45 10° NNE 00:42:52 55° E 00:47:43 11° S
PSLV R/B 4.0 00:39:06 10° NNE 00:43:23 61° E 00:46:14 21° S
Cosmos 1110 Rocket 3.9 00:45:28 31° SSW 00:48:02 83° WNW 00:53:19 10° NNE
Cosmos 1331 Rocket 4.0 00:45:35 27° SSW 00:48:31 88° ESE 00:53:51 10° NNE
CZ-2C R/B 4.5 00:46:13 10° NE 00:49:51 23° E 00:53:31 10° SSE
Cosmos 2123 Rocket 4.2 00:48:29 30° SW 00:51:10 48° W 00:57:10 10° N
Cosmos 2233 Rocket 4.0 00:47:06 10° N 00:53:17 83° E 00:59:25 10° S
Cosmos 1461 3.8 00:54:56 28° WNW 00:55:40 30° NW 00:59:15 10° N
In-Cosmos 22 Rocket 4.3 00:54:22 10° N 01:00:07 84° E 01:05:41 10° S
Cosmos 1242 Rocket 3.9 01:00:57 10° NW 01:02:53 22° WNW 01:02:53 22° WNW
Cosmos 2263 Rocket 3.4 00:59:17 10° S 01:04:33 41° ESE 01:09:50 10° NE
Cosmos 2221 4.2 01:11:41 10° SSE 01:15:39 35° E 01:19:38 10° NNE
Cosmos 1725 Rocket 4.5 01:10:06 10° NNW 01:15:45 38° W 01:21:23 10° SSW
Cosmos 1238 Rocket 3.3 01:16:21 10° N 01:19:12 45° E 01:22:13 10° SSE
Cosmos 2227 4.2 01:15:47 10° SSW 01:21:22 89° ESE 01:27:01 10° NNE
CZ-4B R/B 3.8 01:17:48 10° NNE 01:21:38 49° E 01:25:38 10° S
Cosmos 1300 4.5 01:21:41 15° W 01:22:01 15° WNW 01:24:22 10° NW
Cosmos 1455 2.1 01:18:33 10° S 01:22:17 89° ESE 01:26:03 10° N
Cosmos 2227 Rocket 4.1 01:21:09 11° W 01:23:42 14° NW 01:26:37 10° NNW
NOSS 3-4 (A) 4.0 01:23:15 10° NW 01:30:16 53° WSW 01:37:50 10° S
NOSS 3-4 (C) 4.0 01:23:20 10° NW 01:30:22 53° WSW 01:37:57 10° S
Cosmos-2242 4.2 01:31:19 16° WSW 01:33:29 23° WNW 01:36:54 10° NNW
SJ-6F 4.4 01:31:49 10° N 01:35:54 83° WNW 01:40:00 10° SSW
Cosmos 371 Rocket 3.5 01:34:14 10° SSW 01:38:59 53° WNW 01:43:46 10° N
Cosmos 2058 4.4 01:38:59 10° NW 01:41:41 17° W 01:44:10 11° SW
Cosmos 1408 Rocket 3.8 01:42:25 10° NNW 01:46:44 49° W 01:51:01 10° SSW
Cosmos 1825 2.6 01:44:40 10° N 01:48:27 68° E 01:52:13 10° SSE
Cosmos 1743 Rocket 3.6 01:48:04 10° N 01:52:32 90° NNW 01:56:59 10° S
H-2A R/B 4.0 01:54:01 10° NNW 01:57:06 20° WNW 02:00:06 10° WSW
Meteor 2-20 Rocket 4.5 01:51:05 10° SSW 01:57:12 69° W 02:03:22 10° N
Cosmos 1943 3.8 01:56:56 10° NNW 02:02:38 67° ENE 02:08:16 10° SSE
CZ-3 R/B 3.3 02:03:21 10° SW 02:20:13 38° S 02:25:45 10° ESE
